星链-6258 (STARLINK-6258 )

导读 | 星芒AI

STARLINK-6258 是 SpaceX Starlink 卫星互联网项目中的一颗低轨卫星,属于第 11 批部署的 Starlink 卫星群。该卫星于 2021 年 10 月 31 日由猎鹰 9 号火箭从美国卡纳维拉尔角发射升空。它运行在约 550 公里的轨道高度,旨在为全球用户提供高速互联网服务。Starlink 项目致力于构建一个由数千颗卫星组成的星座,以改善偏远地区的网络接入。STARLINK-6258 采用先进通信技术,支持双向数据传输,并具备自动避撞功能,以确保太空安全。

基本信息
目录编号:
56413
目录名称:
STARLINK-6258
国际标识:
2023-061AR
轨道中心:
EARTH
卫星名称:
星链-6258
卫星全名:
星链-6258 (STARLINK-6258 )
卫星状态:
在轨 (已飞行962 天)
发射日期:
2023-05-04 UTC
国别 :
美国 (US)
星等 :
--
轨道信息
数据来源 国际轨道数据
星历时间: 2025-12-21T18:21:51+0800
9小时前
查看轨道信息
半长轴: 6937.17km
偏心率: 0.0000956
轨道倾角: 43.002°
近地点辐角 269.289°
升交点赤经 249.613°
平近点角 90.785°
近地点: 558.369km
远地点: 559.697km
周期: 95.837分钟
每日圈数: 15.025513
详细信息
固有亮度:
5
最大亮度:
2.5
卫星平台:
Starlink v1.5
覆盖范围:
全球
运营商:
太空探索技术公司
运营商所在国:
美国
制造商(研发单位):
太空探索技术公司
制造商所在国:
美国
使用方式:
暂无
卫星简介
星链(Starlink)计划是由太空探索技术公司(SpaceX)提出的一个巨型低轨卫星互联网星座项目,计划在2019年至2024年间在太空搭建由约1.2万颗卫星组成的“星链”网络,其中1584颗将部署在地球上空550千米处的近地轨道,并从2020年开始工作。该卫星仍在工作。
2D轨道图
3D轨道图
轨道高度分析图
轨道倾角分析图
轨道综合分析图
查看轨道综合分析图